Wetbulb
66.45 65.03 66.52 64.42 56.32 56.58 52.91 53.86 57.72 57.60 57.67 63.03 62.39 61.61 60.62 62.46 60.06 56.76 72.10 73.54 73.47 73.85 74.38 76.36 77.41 76.70 76.70 76.59 76.43 76.21 75.09 74.03 73.88 74.46 73.69 73.14 72.88 72.67 73.57 74.74 74.31 73.43 72.42 72.19 72.28 72.67 72.44 72.66 71.26
65.63 63.78 65.42 61.60 53.52 49.50 51.93 55.44 55.82 56.49 56.96 60.92 62.60 62.22 60.91 60.47 66.23 66.97 70.17 73.36 74.04 74.20 74.74 76.10 77.22 77.39 77.33 76.92 76.58 76.42 75.25 74.26 73.86 73.94 73.75 73.28 72.90 72.65 73.42 74.10 74.29 73.36 72.22 71.83 72.12 72.28 71.94 72.15 70.66
64.06 61.31 60.18 57.79 54.99 50.18 52.16 55.34 55.91 55.71 57.78 58.67 60.01 64.84 63.76 63.39 68.07 68.49 71.98 73.87 74.47 74.78 75.28 76.51 77.26 77.80 77.61 77.26 76.75 76.44 75.60 74.75 74.02 74.38 74.12 73.75 73.62 72.92 72.60 73.49 74.40 73.54 72.26 71.62 71.73 71.77 71.49 71.36 70.37
62.43 62.74 58.15 52.48 50.39 52.62 54.17 54.94 54.72 55.16 56.50 61.55 62.35 59.60 66.42 70.03 69.52 71.20 73.10 73.99 74.10 74.75 75.89 76.74 77.64 77.41 77.15 76.54 75.92 76.31 75.83 75.14 74.40 74.56 74.59 74.57 74.25 73.24 72.56 73.10 74.21 73.62 72.51 71.59 71.36 71.55 71.15 70.84 70.55
63.43 59.92 52.51 50.90 50.41 52.42 54.59 54.39 54.89 54.30 55.23 56.17 61.47 58.33 62.24 69.47 71.47 72.53 73.18 73.75 73.49 74.46 75.65 76.55 77.34 77.21 76.80 76.43 75.97 75.98 75.75 75.26 74.77 74.38 75.12 74.58 74.40 74.20 73.35 72.98 73.97 73.59 72.83 71.70 71.14 71.09 70.92 70.71 71.18
59.31 57.36 50.61 49.02 49.78 52.16 54.20 55.17 54.63 54.68 55.27 55.76 55.63 57.68 63.08 70.20 71.00 72.16 73.28 73.47 74.17 74.45 75.38 75.72 77.10 77.47 77.18 76.65 76.23 76.19 75.81 75.53 75.17 74.98 74.66 74.87 74.87 74.80 74.22 73.39 73.09 73.44 73.49 72.47 71.25 70.84 70.54 70.83 71.81
56.40 55.21 50.25 49.99 49.71 51.10 52.68 55.55 54.70 54.66 54.71 54.49 58.24 56.05 61.52 66.22 68.11 72.08 72.93 73.63 74.17 74.78 75.08 75.53 76.08 76.66 76.83 77.05 76.67 75.99 75.69 75.67 75.26 75.32 75.09 74.84 74.86 74.96 74.39 74.40 73.53 73.26 73.57 73.01 72.22 71.13 70.51 70.93 71.39
58.85 55.20 49.62 51.13 50.23 49.96 53.22 54.50 55.52 54.92 54.26 57.19 57.40 54.47 55.30 61.46 68.88 71.79 72.51 73.13 73.97 74.64 75.23 75.48 75.67 75.81 76.20 75.92 75.99 75.80 75.50 75.56 75.61 75.29 75.14 74.26 74.17 74.36 73.64 73.73 73.83 73.38 73.15 73.56 73.01 72.16 71.04 70.46 71.08
56.30 52.44 49.25 48.99 49.78 50.87 54.44 53.31 55.55 56.61 55.52 55.90 56.17 56.22 58.35 59.73 65.52 70.61 70.73 69.86 72.22 73.25 74.09 74.80 75.17 75.60 75.83 75.67 75.34 75.86 75.15 75.14 74.67 74.21 74.14 74.68 74.16 73.69 73.94 73.29 73.65 73.51 73.12 73.02 73.28 72.49 71.96 71.43 70.84
55.29 52.31 49.20 52.48 52.65 52.66 54.13 53.98 54.45 54.41 54.41 54.31 55.64 57.90 58.76 59.44 59.13 58.30 62.89 65.04 66.77 66.69 67.66 68.63 70.34 72.08 74.61 75.18 75.96 76.11 75.89 75.59 75.17 74.61 74.07 73.77 73.24 73.04 73.16 72.62 72.93 73.41 73.24 72.98 72.65 72.55 71.85 71.46 70.56
54.05 51.33 52.28 52.90 54.69 54.39 53.50 53.59 55.04 53.67 52.34 53.48 53.12 55.27 56.73 57.37 58.01 57.27 58.97 60.99 62.00 63.97 65.10 65.62 66.79 69.12 71.60 72.51 73.86 75.47 75.72 74.75 74.62 74.28 74.15 73.81 73.09 72.94 73.19 72.94 73.09 72.65 72.85 72.50 72.24 72.21 72.08 71.07 70.22
51.52 52.44 52.83 53.47 53.71 53.18 52.57 54.17 52.76 53.53 52.07 53.60 54.35 56.52 57.26 56.66 58.54 59.32 59.89 60.52 61.22 61.59 62.20 63.39 64.27 65.87 67.22 68.74 67.79 71.27 71.78 73.70 74.26 73.97 74.44 73.53 73.69 72.33 72.09 72.23 72.66 72.43 71.98 71.14 71.48 71.67 71.84 71.45 70.73
51.44 51.85 52.72 53.50 52.86 52.71 53.02 52.00 52.23 51.53 52.59 53.52 56.53 57.49 57.28 57.48 58.35 58.44 58.25 58.17 59.05 58.07 58.44 59.53 60.74 61.48 63.78 65.53 66.41 66.02 66.51 69.17 70.42 71.41 74.21 74.65 73.06 72.81 73.07 71.96 72.98 72.33 72.44 71.84 71.10 71.16 70.94 70.61 70.27
51.96 51.75 51.96 52.57 52.30 52.29 51.43 51.63 52.57 51.92 53.10 52.66 55.09 55.13 55.32 54.77 54.43 54.38 53.43 52.94 54.07 54.54 54.79 56.01 56.48 57.44 59.58 61.17 62.82 64.62 65.82 66.42 67.56 69.80 70.43 72.54 73.08 72.63 72.22 71.68 71.35 71.28 73.19 72.42 71.43 70.51 70.19 70.02 70.08
51.98 49.92 51.51 52.02 52.06 49.90 51.79 49.66 50.38 52.03 52.47 51.24 53.04 52.90 51.09 50.44 50.88 50.35 51.03 51.17 51.97 52.84 53.20 53.29 53.98 55.32 56.09 57.21 58.70 61.43 63.60 64.92 65.26 66.23 66.83 67.87 69.94 71.28 71.09 71.33 71.95 71.31 73.08 72.01 71.62 70.75 69.88 69.30 69.53
49.65 50.21 45.99 50.55 51.14 50.20 50.27 45.66 51.12 52.02 50.01 49.69 51.57 50.00 48.68 48.35 49.11 49.80 50.23 50.77 51.41 51.82 51.74 52.65 52.97 53.36 53.89 54.43 55.17 57.21 60.48 63.23 64.24 64.60 65.44 66.16 65.66 65.86 69.53 69.73 69.51 72.04 72.26 71.75 71.32 69.42 67.87 68.42 68.48
47.71 43.53 44.28 45.84 49.76 47.47 46.16 44.15 49.04 50.86 49.18 49.28 49.45 47.73 47.73 48.10 48.89 49.99 50.98 51.51 52.11 52.57 52.70 53.03 53.83 53.52 53.79 54.10 53.94 54.58 57.12 58.74 60.92 63.59 63.55 64.20 64.95 65.86 65.57 66.86 67.98 68.64 69.77 70.05 69.74 69.36 68.25 67.17 67.19
41.39 41.77 42.94 42.85 46.23 45.14 43.61 44.25 47.16 47.76 48.11 46.26 46.11 46.81 47.15 47.33 47.43 49.39 50.41 51.12 51.37 51.80 52.25 52.53 52.87 53.17 53.70 54.78 54.70 54.10 54.67 55.86 57.74 59.66 61.63 62.57 63.00 63.87 63.85 65.15 66.85 67.60 67.68 67.62 68.99 68.52 68.14 68.20 65.09
43.41 41.66 40.74 43.37 44.80 42.27 42.05 42.41 44.26 44.58 45.47 44.49 44.74 45.07 45.45 45.99 47.96 49.28 50.06 50.43 50.37 51.07 51.78 52.13 52.22 52.63 52.87 52.49 52.39 52.46 52.46 53.44 55.45 56.14 58.65 58.62 61.34 63.17 62.26 62.03 64.04 64.93 67.28 67.29 67.08 66.20 65.98 65.38 66.30
41.42 39.99 40.27 41.96 43.12 41.37 41.27 40.41 43.11 41.75 41.48 42.76 43.48 44.27 44.79 45.74 47.00 48.07 48.81 49.34 49.39 49.53 50.16 50.42 50.81 51.71 52.15 52.30 52.26 52.35 52.09 52.75 54.98 57.04 56.83 57.70 58.96 61.13 62.27 63.36 61.95 63.13 63.99 65.57 65.94 65.41 64.48 64.41 64.73
39.68 37.83 37.64 37.38 40.83 41.98 39.60 38.93 38.96 39.47 41.09 42.03 43.22 44.01 44.80 44.76 45.28 46.57 47.40 48.14 48.68 48.58 49.23 49.69 50.73 51.39 52.20 52.85 53.14 53.40 53.86 53.22 52.85 54.69 55.56 56.13 57.98 60.00 61.40 61.97 63.65 62.26 63.15 63.50 64.85 65.17 64.80 62.93 62.46
37.72 40.04 39.25 38.20 36.49 33.65 38.75 32.44 39.02 39.57 39.58 41.04 42.65 43.58 43.98 44.79 45.81 46.52 46.91 47.59 47.64 48.46 49.89 50.17 50.67 50.83 51.08 51.60 50.81 50.34 50.14 50.17 52.41 53.63 55.01 55.99 57.22 59.20 60.64 61.81 63.14 64.40 63.40 62.91 63.43 64.95 64.62 65.30 60.58
38.11 40.47 38.67 37.89 35.96 35.11 35.37 32.95 38.00 39.28 38.42 39.62 41.48 42.78 43.86 44.84 45.35 45.53 46.19 47.56 48.14 48.74 49.45 50.05 50.36 50.15 49.72 49.80 49.67 48.84 48.37 49.45 50.69 51.84 52.48 53.63 55.89 57.27 59.77 60.79 61.80 62.71 63.40 62.62 62.93 64.11 63.91 64.85 63.07
41.03 38.53 38.75 36.40 36.04 31.44 32.76 31.34 33.95 36.57 36.30 38.65 40.73 41.31 42.56 43.89 45.04 45.72 46.60 47.53 48.12 48.81 49.40 49.59 49.33 48.58 49.07 49.39 49.34 48.65 47.86 47.84 48.13 49.02 49.54 50.88 52.64 54.89 57.49 59.45 61.00 62.17 62.05 61.91 62.42 63.59 63.90 63.28 64.63
38.96 35.86 30.40 31.04 31.50 30.42 33.46 30.54 33.72 36.95 38.15 38.60 38.76 39.52 41.99 43.30 43.14 43.78 44.76 45.74 47.05 47.55 47.78 48.49 48.58 48.28 48.49 48.59 48.52 48.70 48.36 48.19 47.59 47.75 48.63 49.18 50.66 52.87 54.83 57.62 58.97 60.68 61.58 61.76 63.06 63.25 62.93 62.50 64.04
35.33 33.87 28.69 20.34 24.84 26.85 32.66 27.37 33.08 37.83 39.12 39.87 39.73 40.13 41.44 41.47 41.80 42.80 45.16 45.77 46.57 47.04 47.19 47.80 47.95 47.98 48.30 48.33 48.20 48.68 48.69 47.81 47.59 47.56 47.98 48.87 50.83 52.86 54.16 55.69 58.20 59.45 60.53 60.83 62.89 62.83 62.57 62.37 64.17
34.58 31.67 34.86 28.22 30.13 25.39 29.43 32.76 36.91 37.18 36.89 37.44 37.91 38.92 39.49 40.35 41.28 42.20 44.81 45.50 46.38 46.63 46.80 47.10 47.48 47.95 48.14 48.14 48.36 47.99 48.17 47.74 46.99 47.12 47.84 48.80 50.55 50.61 52.73 54.26 55.77 58.60 59.69 59.60 61.05 61.60 61.61 62.19 63.39
34.81 36.11 28.09 30.14 19.02 18.37 26.34 27.79 28.78 32.30 33.64 35.60 36.26 37.42 38.84 40.32 41.23 42.40 43.95 44.88 45.60 46.36 47.10 47.49 47.66 47.30 47.90 48.25 48.23 47.63 47.75 47.74 47.36 46.93 46.82 47.79 49.66 51.75 52.63 53.64 55.17 57.78 58.27 59.13 60.33 60.97 61.53 61.55 62.28
32.09 30.96 30.82 30.49 28.09 20.75 18.96 24.78 34.77 33.15 34.32 34.43 36.49 38.04 38.79 39.88 41.19 42.40 43.21 44.38 45.36 46.22 46.43 46.37 46.34 46.37 46.97 47.38 47.64 47.45 47.40 47.40 46.66 46.03 46.40 47.23 49.08 50.60 51.25 53.20 54.83 55.48 57.21 59.80 60.60 60.72 60.49 60.95 61.14
33.59 30.96 30.48 24.59 22.42 26.16 24.01 23.45 36.14 35.29 36.19 36.95 37.13 38.05 39.45 40.52 41.68 42.65 43.35 43.88 44.00 44.00 44.24 44.39 44.73 44.85 45.91 46.73 47.00 46.97 47.10 46.76 45.43 44.85 45.84 47.11 48.02 49.75 50.79 53.30 53.03 55.51 59.51 60.47 60.06 59.54 59.80 59.42 59.27
MSLP
1010.80 1010.44 1010.15 1009.52 1008.74 1007.09 1006.36 1006.76 1006.86 1006.47 1006.33 1006.73 1006.70 1006.08 1006.06 1006.23 1006.44 1007.44 1008.81 1008.99 1009.35 1009.27 1009.74 1010.69 1011.18 1011.44 1011.67 1011.75 1012.03 1012.25 1012.45 1012.68 1012.88 1012.86 1013.10 1013.17 1013.18 1013.18 1013.13 1012.96 1012.93 1012.95 1013.01 1013.01 1013.06 1013.07 1013.12 1013.10 1013.11
1010.66 1010.36 1009.89 1008.83 1007.54 1006.25 1006.17 1006.69 1006.55 1006.81 1007.06 1007.13 1006.85 1006.55 1006.23 1006.55 1007.30 1007.70 1008.31 1009.13 1009.29 1009.29 1009.68 1010.17 1011.09 1011.44 1011.58 1011.68 1011.93 1012.08 1012.37 1012.61 1012.84 1012.94 1013.06 1013.12 1013.28 1013.27 1013.19 1013.08 1013.08 1013.25 1013.17 1013.21 1013.25 1013.27 1013.28 1013.23 1013.27
1010.82 1010.51 1009.28 1008.03 1007.09 1006.11 1006.15 1006.87 1006.98 1007.14 1007.28 1006.97 1006.66 1006.84 1006.67 1007.19 1007.80 1007.95 1008.73 1009.22 1009.31 1009.46 1009.73 1010.08 1011.18 1011.43 1011.56 1011.77 1011.92 1012.06 1012.27 1012.53 1012.77 1012.83 1012.95 1013.05 1013.15 1013.19 1013.19 1013.21 1013.07 1013.20 1013.22 1013.30 1013.39 1013.47 1013.50 1013.44 1013.57
1010.59 1009.93 1009.35 1008.02 1006.96 1007.36 1007.14 1007.39 1007.68 1007.29 1007.38 1007.44 1007.26 1006.65 1007.43 1008.30 1008.27 1008.66 1009.10 1009.23 1009.26 1009.42 1009.71 1010.48 1011.16 1011.39 1011.61 1011.81 1011.89 1011.96 1012.14 1012.44 1012.71 1012.82 1012.82 1012.91 1013.07 1013.10 1013.11 1013.18 1013.15 1013.23 1013.29 1013.37 1013.30 1013.39 1013.52 1013.48 1013.66
1010.52 1009.56 1008.22 1007.64 1007.48 1007.68 1007.85 1008.13 1008.07 1007.58 1007.63 1007.59 1007.57 1007.09 1007.47 1008.49 1008.90 1009.03 1009.17 1009.27 1009.23 1009.46 1009.70 1010.35 1011.22 1011.41 1011.62 1011.76 1011.87 1011.96 1012.06 1012.25 1012.50 1012.62 1012.71 1012.83 1012.90 1012.94 1013.00 1013.08 1013.18 1013.23 1013.31 1013.44 1013.41 1013.38 1013.40 1013.45 1013.53
1009.73 1009.44 1007.92 1007.44 1007.78 1008.14 1008.25 1008.52 1008.37 1008.12 1008.06 1007.99 1007.71 1007.60 1008.00 1008.70 1008.90 1009.27 1009.44 1009.44 1009.56 1009.73 1010.00 1010.25 1011.20 1011.42 1011.52 1011.61 1011.75 1011.81 1011.95 1012.08 1012.18 1012.33 1012.47 1012.52 1012.54 1012.72 1012.80 1012.90 1013.00 1013.17 1013.28 1013.30 1013.41 1013.51 1013.55 1013.41 1013.26
1009.69 1009.04 1008.55 1008.38 1008.36 1008.42 1008.82 1008.99 1008.60 1008.53 1008.38 1008.62 1008.86 1008.01 1008.27 1008.62 1009.40 1009.49 1009.50 1009.70 1009.90 1010.00 1010.31 1010.42 1010.56 1011.00 1011.47 1011.47 1011.60 1011.80 1011.85 1011.92 1012.00 1012.05 1012.17 1012.29 1012.31 1012.35 1012.51 1012.62 1012.73 1012.88 1013.05 1013.20 1013.30 1013.42 1013.48 1013.50 1013.54
1010.45 1009.64 1009.06 1009.06 1008.75 1009.15 1009.60 1009.36 1009.54 1009.27 1009.08 1009.30 1009.15 1008.39 1008.63 1009.50 1009.71 1009.75 1009.79 1009.86 1010.05 1010.28 1010.50 1010.59 1010.59 1010.60 1010.55 1010.61 1011.29 1011.61 1011.75 1011.81 1011.87 1011.92 1011.96 1012.10 1012.21 1012.29 1012.39 1012.49 1012.61 1012.72 1012.83 1012.93 1013.04 1013.18 1013.26 1013.40 1013.36
1011.06 1009.89 1009.38 1009.69 1009.66 1009.88 1010.00 1009.73 1010.00 1010.06 1009.44 1009.47 1009.62 1009.55 1009.88 1010.06 1009.95 1009.88 1009.85 1009.89 1010.15 1010.48 1010.65 1010.59 1010.57 1010.52 1010.55 1010.56 1010.76 1011.17 1011.44 1011.63 1011.74 1011.71 1011.66 1011.80 1011.58 1011.14 1011.55 1011.68 1011.95 1012.34 1012.56 1012.64 1012.67 1012.92 1013.10 1013.19 1013.38
1010.69 1010.26 1010.52 1010.91 1010.81 1010.65 1010.59 1010.49 1010.39 1009.98 1009.83 1009.82 1009.97 1010.03 1010.28 1010.36 1010.12 1010.01 1010.17 1010.43 1010.89 1011.42 1011.69 1011.82 1011.71 1011.41 1010.75 1010.63 1010.58 1010.51 1010.58 1010.66 1010.67 1010.83 1010.67 1010.54 1010.42 1010.24 1010.65 1011.23 1011.68 1012.00 1012.20 1012.33 1012.56 1012.67 1012.90 1013.07 1012.24
1011.27 1010.92 1011.44 1011.48 1011.54 1011.51 1011.09 1010.73 1010.91 1010.68 1010.72 1011.33 1011.35 1011.11 1011.12 1010.99 1010.92 1011.07 1011.35 1011.81 1012.18 1012.46 1012.61 1012.59 1012.39 1011.93 1011.52 1011.47 1011.04 1010.90 1010.78 1010.46 1010.38 1010.35 1010.27 1010.37 1010.11 1009.95 1010.07 1010.63 1011.07 1011.20 1011.51 1011.49 1011.74 1012.18 1012.23 1011.88 1011.66
1011.46 1011.87 1011.92 1011.95 1012.20 1012.03 1011.64 1011.55 1011.23 1011.59 1012.41 1012.61 1012.73 1012.59 1012.30 1011.99 1012.26 1012.58 1012.77 1012.94 1012.98 1013.16 1013.39 1013.31 1013.10 1012.60 1012.14 1011.93 1011.99 1011.40 1011.15 1010.84 1010.27 1009.83 1009.91 1010.12 1010.18 1009.84 1009.65 1009.84 1010.18 1010.29 1010.43 1010.53 1010.73 1011.55 1011.55 1011.58 1011.22
1011.78 1012.13 1012.27 1012.29 1012.45 1012.31 1012.24 1011.86 1011.81 1012.38 1013.05 1013.40 1013.58 1013.52 1013.43 1013.38 1013.51 1013.72 1013.80 1013.96 1013.83 1013.76 1013.96 1013.81 1013.64 1013.38 1012.86 1012.24 1012.04 1011.97 1011.78 1011.33 1010.98 1010.67 1009.94 1009.92 1009.69 1009.66 1009.76 1009.73 1010.13 1010.16 1010.01 1010.39 1010.35 1010.81 1011.08 1011.05 1010.82
1012.64 1012.50 1012.39 1012.40 1012.35 1012.44 1012.21 1012.10 1012.17 1012.66 1013.05 1013.64 1013.90 1014.18 1014.41 1014.52 1014.58 1014.54 1014.54 1014.54 1014.40 1014.41 1014.33 1014.22 1013.98 1013.84 1013.38 1012.93 1012.61 1012.21 1011.63 1011.33 1010.96 1010.76 1010.53 1009.88 1009.64 1009.45 1009.45 1009.49 1009.63 1009.63 1009.92 1010.11 1010.18 1010.13 1010.27 1010.49 1010.52
1012.74 1012.18 1012.25 1012.40 1012.50 1012.82 1012.67 1011.98 1011.99 1012.69 1012.97 1013.48 1014.16 1014.61 1015.24 1015.57 1015.54 1015.59 1015.61 1015.32 1015.06 1014.72 1014.66 1014.58 1014.36 1014.09 1013.83 1013.43 1012.94 1012.41 1011.81 1011.48 1011.00 1010.70 1010.65 1010.32 1009.88 1009.39 1009.29 1009.26 1009.22 1008.97 1009.16 1009.37 1009.82 1009.77 1009.73 1009.97 1010.29
1012.61 1012.41 1012.00 1012.30 1012.73 1013.06 1012.63 1011.50 1011.95 1012.51 1013.04 1013.19 1014.10 1014.72 1015.34 1015.74 1015.94 1016.22 1016.30 1016.04 1015.78 1015.32 1014.99 1014.79 1014.54 1014.17 1013.97 1013.61 1013.19 1012.75 1012.14 1011.72 1011.30 1010.81 1010.38 1010.15 1010.12 1010.00 1009.55 1009.32 1009.14 1008.72 1008.78 1009.01 1009.09 1009.26 1009.40 1009.85 1009.88
1012.86 1012.58 1012.95 1012.85 1013.42 1013.65 1013.44 1012.26 1012.22 1013.07 1013.86 1014.17 1015.08 1015.60 1015.92 1016.19 1016.49 1016.73 1016.76 1016.52 1016.21 1015.90 1015.49 1015.11 1014.74 1014.39 1014.16 1013.66 1013.14 1012.68 1012.14 1011.75 1011.36 1010.96 1010.43 1010.14 1009.88 1009.48 1009.46 1009.30 1008.97 1008.91 1008.80 1008.75 1008.85 1008.97 1009.23 1009.76 1010.00
1013.97 1013.70 1013.63 1013.69 1013.83 1014.53 1013.97 1013.33 1013.29 1014.56 1015.22 1015.69 1016.19 1016.44 1016.58 1016.76 1017.05 1017.10 1016.99 1016.82 1016.55 1016.32 1016.00 1015.59 1015.14 1014.75 1014.38 1013.90 1013.35 1012.69 1012.11 1011.68 1011.19 1010.86 1010.46 1010.28 1009.66 1009.42 1009.19 1008.88 1008.67 1008.72 1008.65 1008.56 1008.51 1008.31 1008.85 1009.16 1009.56
1015.77 1015.38 1014.89 1014.71 1015.17 1015.31 1014.21 1013.82 1013.82 1015.25 1015.79 1016.08 1016.33 1016.41 1016.53 1016.75 1017.10 1017.14 1017.06 1016.83 1016.55 1016.20 1016.07 1015.79 1015.42 1015.12 1014.70 1014.08 1013.61 1013.13 1012.46 1012.12 1011.46 1011.03 1010.57 1010.18 1009.66 1009.35 1009.18 1009.09 1008.63 1008.16 1008.01 1007.95 1008.25 1008.30 1008.51 1008.90 1009.39
1016.66 1016.34 1015.87 1015.87 1015.94 1016.04 1014.45 1014.03 1014.36 1016.16 1016.94 1017.30 1017.46 1017.44 1017.28 1016.96 1016.71 1016.90 1016.94 1016.90 1016.78 1016.34 1016.24 1016.00 1015.57 1015.27 1014.89 1014.54 1014.13 1013.68 1013.22 1012.50 1011.82 1011.27 1011.01 1010.42 1009.65 1009.27 1009.11 1008.53 1008.35 1008.22 1008.00 1007.72 1007.70 1007.82 1008.04 1008.56 1008.91
1017.67 1017.65 1017.45 1017.09 1016.39 1015.49 1014.92 1013.16 1014.89 1016.65 1017.40 1018.16 1018.37 1018.20 1017.96 1017.89 1017.52 1017.09 1016.97 1016.80 1016.68 1016.52 1016.40 1016.16 1015.90 1015.56 1015.02 1014.73 1014.10 1013.68 1013.10 1012.41 1011.78 1011.00 1010.67 1010.33 1009.80 1009.05 1008.67 1008.35 1007.69 1007.74 1007.78 1007.55 1007.30 1007.26 1007.27 1007.60 1008.35
1018.07 1018.88 1018.40 1017.56 1016.79 1015.26 1015.97 1014.05 1014.27 1015.83 1016.84 1017.44 1017.57 1017.70 1017.80 1017.76 1017.81 1017.47 1017.14 1016.77 1016.52 1016.58 1016.52 1016.11 1015.98 1015.69 1015.20 1014.87 1014.30 1013.91 1013.31 1012.56 1012.05 1011.52 1010.85 1010.14 1009.49 1008.66 1008.13 1007.85 1007.34 1007.09 1007.16 1006.94 1006.79 1006.73 1006.80 1006.67 1007.33
1019.41 1019.42 1018.55 1017.67 1016.97 1016.37 1015.86 1015.99 1014.22 1015.94 1016.70 1016.97 1017.93 1018.11 1018.00 1018.14 1017.91 1017.50 1016.99 1016.94 1016.78 1016.73 1016.68 1016.23 1015.92 1015.50 1015.37 1015.11 1014.68 1014.17 1013.49 1012.98 1012.21 1011.59 1010.90 1010.09 1009.25 1008.93 1008.09 1007.48 1006.77 1006.43 1006.16 1006.27 1006.15 1006.06 1006.16 1006.14 1006.44
1020.42 1019.41 1017.62 1017.79 1017.09 1016.14 1016.26 1016.81 1014.13 1015.53 1017.45 1017.80 1018.03 1018.22 1018.14 1018.00 1017.87 1017.58 1016.87 1016.44 1016.53 1016.55 1016.56 1016.11 1015.76 1015.49 1015.28 1015.15 1014.82 1014.34 1013.61 1013.06 1012.26 1011.48 1010.82 1009.84 1009.29 1008.59 1007.89 1007.23 1006.14 1006.17 1005.69 1005.38 1005.43 1005.39 1005.50 1005.80 1005.66
1020.73 1019.76 1018.01 1016.67 1016.41 1015.94 1017.26 1017.07 1015.24 1016.81 1018.07 1018.64 1018.60 1018.44 1018.22 1017.91 1017.78 1017.26 1016.71 1016.29 1016.26 1016.36 1016.16 1015.79 1015.50 1015.23 1015.06 1014.90 1014.58 1014.09 1013.68 1012.99 1012.25 1011.43 1010.66 1009.95 1009.04 1008.25 1007.73 1007.32 1006.54 1005.70 1005.06 1004.63 1004.51 1004.54 1004.82 1005.12 1005.04
1021.65 1021.81 1021.03 1019.92 1018.07 1017.23 1017.82 1016.40 1016.10 1017.94 1018.35 1018.62 1018.45 1018.62 1018.12 1017.75 1017.66 1017.10 1016.54 1016.32 1016.05 1015.89 1015.79 1015.49 1015.22 1014.89 1014.69 1014.51 1014.33 1013.84 1013.32 1012.75 1012.05 1011.34 1010.67 1009.85 1008.85 1008.03 1007.79 1007.16 1006.12 1005.05 1004.32 1003.90 1003.82 1003.84 1004.16 1004.50 1004.43
1022.36 1022.55 1023.48 1022.59 1021.11 1019.99 1017.81 1017.16 1016.92 1017.97 1018.16 1018.40 1018.55 1018.72 1018.22 1017.71 1017.43 1017.00 1016.42 1016.06 1015.66 1015.30 1015.12 1014.99 1014.82 1014.53 1014.27 1014.05 1013.83 1013.34 1012.75 1012.37 1011.64 1010.85 1010.33 1009.42 1008.64 1008.02 1007.34 1006.60 1005.63 1004.46 1003.73 1003.26 1003.33 1003.20 1003.39 1003.91 1003.92
1023.98 1024.43 1023.88 1023.18 1021.98 1020.04 1018.21 1018.11 1017.32 1018.34 1018.62 1018.67 1018.58 1018.63 1018.25 1017.74 1017.34 1016.85 1016.26 1015.79 1015.43 1015.13 1014.88 1014.71 1014.44 1014.04 1013.70 1013.54 1013.18 1012.81 1012.38 1011.95 1011.31 1010.48 1009.72 1008.93 1008.00 1007.09 1006.31 1005.49 1004.54 1003.50 1002.54 1002.18 1002.34 1002.55 1002.83 1003.27 1003.55
1024.44 1024.43 1024.74 1024.98 1023.98 1022.13 1020.18 1018.82 1018.87 1019.30 1019.33 1019.30 1018.79 1018.60 1018.34 1017.73 1017.42 1016.91 1016.38 1015.90 1015.41 1015.06 1014.74 1014.41 1013.91 1013.40 1013.09 1012.85 1012.65 1012.33 1011.85 1011.48 1010.82 1010.23 1009.39 1008.28 1007.29 1006.42 1005.39 1003.95 1003.16 1002.43 1001.85 1001.36 1001.45 1001.83 1002.29 1002.87 1003.14
1025.70 1025.75 1025.61 1025.45 1024.62 1023.61 1022.35 1020.01 1020.20 1019.99 1019.72 1019.48 1018.97 1018.60 1018.20 1017.86 1017.49 1016.87 1016.35 1015.73 1015.23 1014.86 1014.59 1014.08 1013.51 1012.95 1012.58 1012.44 1012.20 1011.79 1011.46 1011.03 1010.46 1009.92 1008.82 1007.57 1006.70 1005.88 1005.06 1003.96 1003.12 1002.05 1000.81 1000.51 1000.97 1001.73 1002.17 1002.78 1003.26
Wind_Speed
4 5 3 4 5 4 3 5 1 4 3 4 1 5 8 6 7 5 2 6 1 10 12 15 12 12 12 12 11 11 10 8 7 7 6 5 5 4 2 7 9 7 7 7 7 7 6 8 8
6 3 3 2 5 5 5 2 4 4 4 2 1 2 1 6 4 4 3 7 4 9 11 13 14 12 11 13 12 13 11 9 8 8 8 7 5 5 4 4 7 6 6 6 6 6 5 7 7
3 3 4 2 2 2 3 3 3 3 4 2 1 3 4 4 5 4 5 6 5 8 10 9 13 11 10 10 9 13 12 9 9 9 9 9 8 7 6 5 7 7 6 6 6 5 4 5 5
3 3 3 5 2 3 3 4 4 1 2 5 4 0 3 7 4 8 3 5 5 7 9 13 11 10 10 9 8 9 10 9 8 9 10 11 10 9 8 7 6 7 7 7 7 6 5 4 5
1 3 3 2 3 3 3 4 4 3 2 5 5 4 3 5 5 5 4 4 4 6 7 10 11 12 11 10 10 8 9 9 9 10 11 11 11 10 10 8 7 7 7 7 7 7 6 5 6
2 3 4 2 3 3 3 5 2 3 4 6 3 5 5 4 6 5 4 4 3 6 5 6 11 10 10 11 11 11 10 10 11 12 12 11 13 13 11 10 8 8 9 8 8 8 7 5 10
2 3 2 1 2 4 4 4 6 5 4 7 4 5 4 9 8 3 3 3 3 3 4 5 7 11 10 11 12 10 11 11 12 12 13 12 12 11 12 12 11 11 9 10 9 9 8 7 8
2 3 1 1 2 5 5 2 4 7 6 3 5 4 6 11 9 3 1 1 1 2 2 3 5 6 7 9 12 10 11 12 12 12 11 11 10 11 11 11 12 11 11 12 11 10 10 10 9
1 2 2 3 1 4 5 4 3 3 5 4 5 6 7 8 5 2 2 1 1 2 4 5 6 6 7 8 6 9 12 12 12 12 13 11 11 11 13 12 9 13 13 13 13 11 12 11 9
3 2 4 4 4 5 6 6 6 4 7 5 9 8 7 10 9 6 5 6 8 8 8 9 10 12 9 7 9 9 10 8 9 9 12 9 12 11 8 6 8 12 14 13 12 12 11 9 9
3 4 3 4 4 7 7 6 5 7 4 11 13 15 14 11 10 8 8 9 8 9 9 11 11 10 8 8 6 5 5 7 7 12 11 10 9 8 9 8 7 10 14 10 12 10 9 12 9
1 3 3 2 4 7 8 7 2 8 9 8 10 11 13 13 12 12 10 10 10 10 11 12 13 12 11 5 6 6 4 7 8 10 12 9 7 10 9 7 8 8 7 10 9 6 10 11 12
1 4 5 6 4 4 4 2 2 10 8 8 9 11 12 11 11 11 10 11 10 11 12 12 12 13 12 10 7 5 6 6 7 8 12 8 10 9 8 9 8 10 7 9 9 10 10 11 13
5 5 5 4 5 5 5 2 5 7 5 8 8 10 10 11 11 10 12 12 12 11 12 12 12 12 11 9 10 8 8 8 7 5 7 11 10 10 9 9 8 9 8 9 9 10 10 10 11
2 1 5 9 8 6 6 5 5 6 8 8 6 8 10 10 11 12 11 12 12 11 13 14 12 12 11 11 10 8 8 8 7 7 8 10 10 10 11 9 10 10 8 11 10 12 11 10 10
2 1 6 7 9 4 9 9 8 8 12 11 2 5 7 10 11 11 11 11 12 12 13 13 12 14 14 13 10 7 7 7 7 7 7 9 7 9 10 7 8 10 8 8 9 9 7 8 10
5 6 8 7 5 8 7 13 13 11 15 9 5 6 7 8 10 10 11 10 11 11 12 12 13 14 15 13 11 11 10 7 6 6 7 8 9 10 7 7 6 8 8 9 10 10 9 9 6
10 8 8 12 9 13 16 14 11 11 8 5 4 6 7 8 10 9 10 10 11 11 12 13 11 14 14 11 10 9 9 9 9 8 7 9 8 9 9 9 9 7 6 7 8 11 9 10 7
8 11 16 14 11 16 14 19 18 2 3 4 3 4 4 5 4 6 7 8 10 11 12 14 14 14 11 9 10 10 10 11 9 10 12 12 10 10 7 7 10 10 9 10 9 10 10 6 8
10 12 10 7 8 15 17 21 5 0 1 3 4 4 5 5 7 7 9 11 13 13 14 14 15 14 11 9 9 9 10 11 11 9 10 14 12 11 11 9 7 8 7 9 9 9 6 7 9
4 7 10 14 19 21 14 14 7 4 3 2 1 4 5 7 9 9 10 10 10 13 13 13 14 14 12 13 9 9 10 9 10 10 11 9 14 13 10 12 9 9 8 7 9 10 13 8 7
8 8 13 16 18 11 10 10 4 3 3 4 5 7 7 7 9 10 12 12 11 12 11 11 11 13 12 14 11 13 11 12 11 11 11 12 14 14 13 10 11 10 8 9 9 9 10 11 9
5 14 15 20 16 9 5 7 5 4 3 8 11 10 9 10 10 14 16 12 11 10 10 10 11 11 11 12 12 11 12 11 11 11 15 15 12 14 15 14 13 11 7 8 10 11 11 10 9
12 12 21 4 7 7 8 4 7 6 8 9 11 12 12 14 15 17 15 12 12 9 9 9 10 10 10 11 13 14 14 15 13 14 13 11 11 10 12 15 12 12 11 9 10 11 12 11 11
13 12 8 6 5 10 4 11 14 9 6 6 11 17 15 15 18 18 18 12 13 11 11 10 10 11 10 12 13 13 14 15 15 16 12 15 12 10 11 14 14 11 12 10 12 11 11 12 13
6 8 4 8 10 18 17 10 5 7 3 5 16 17 19 21 19 18 17 11 13 12 11 10 11 11 11 11 13 12 13 11 12 14 14 12 12 12 13 13 15 16 14 10 13 9 9 12 14
5 6 7 12 14 11 8 11 10 4 15 21 15 20 22 21 20 19 15 13 15 13 12 11 11 11 11 11 11 13 13 15 15 18 16 12 14 11 13 14 16 16 15 11 12 9 11 12 12
3 5 5 5 7 15 12 21 12 15 23 20 20 22 21 19 20 17 15 15 14 12 12 13 14 13 12 11 11 11 14 15 16 16 18 16 14 14 16 15 14 16 13 11 13 11 11 11 9
7 5 5 6 8 12 15 8 18 23 18 18 23 20 18 18 16 15 13 12 12 11 12 13 14 16 13 12 12 13 14 15 16 17 17 17 17 17 17 16 16 15 16 12 10 9 11 13 10
1 3 5 7 15 14 15 18 15 14 20 20 18 17 16 15 15 13 13 14 14 15 15 15 16 16 15 13 13 14 14 15 16 17 18 18 16 18 16 17 14 16 12 11 11 11 10 11 12
Wind_Direction
310 335 323 245 226 245 150 116 72 135 145 37 74 343 40 22 6 27 51 187 137 167 172 172 174 178 184 177 179 166 155 159 165 158 158 163 161 151 161 158 146 138 127 120 124 103 83 99 85
336 311 242 253 251 219 123 113 139 53 30 277 273 263 218 69 51 85 151 154 161 161 170 177 170 186 189 184 185 168 162 165 173 179 173 174 178 175 187 186 149 142 128 125 130 122 101 109 96
300 325 272 271 255 267 115 120 74 38 24 339 297 349 3 52 63 35 56 148 152 158 173 158 169 187 190 194 178 169 171 171 189 188 190 188 188 189 192 214 175 155 145 140 143 136 121 109 107
289 203 179 253 145 89 60 87 8 345 117 43 349 202 133 36 6 1 39 151 155 151 167 131 176 191 182 188 187 185 176 176 203 209 205 205 202 196 197 213 209 167 164 160 155 159 156 145 149
257 239 231 210 120 98 97 34 1 28 58 30 351 44 56 59 32 29 93 139 139 152 168 162 188 185 190 193 198 208 193 189 212 222 230 230 215 207 205 207 208 189 183 178 173 176 177 183 182
225 277 239 238 114 92 81 15 352 31 34 30 11 343 69 54 31 60 113 125 129 145 172 174 178 194 197 204 209 210 209 215 222 230 235 243 222 217 212 211 212 219 208 192 189 192 196 199 173
330 299 37 76 112 141 47 353 28 10 24 47 346 350 55 65 14 31 89 91 124 115 168 184 204 193 209 215 213 223 230 225 230 240 234 237 224 226 222 216 215 217 223 209 200 201 201 197 179
351 290 130 48 78 89 34 34 13 14 54 349 335 30 356 359 356 9 26 110 148 156 212 235 234 236 233 221 207 228 242 238 235 235 246 239 244 246 238 236 222 228 224 214 211 210 205 210 205
296 258 53 55 346 72 32 2 44 333 313 27 26 349 26 10 357 323 287 248 344 347 329 308 281 266 262 266 258 217 236 249 251 244 237 240 243 239 224 228 233 214 229 230 225 215 214 211 221
343 337 50 26 22 10 358 349 338 305 0 10 352 9 347 345 352 349 12 3 17 14 1 358 340 323 287 265 269 256 254 246 246 245 252 238 241 242 244 265 207 228 230 235 238 230 221 217 230
20 38 48 64 27 348 331 325 346 339 30 8 340 340 353 354 12 7 34 33 26 18 17 12 1 345 320 318 256 270 278 262 254 251 248 252 262 255 223 235 225 227 214 233 212 223 227 228 233
213 64 15 24 3 322 324 327 21 56 28 18 19 12 18 28 32 31 29 24 16 25 15 10 9 3 358 347 360 338 301 300 279 253 253 246 247 252 251 236 240 239 234 230 230 225 228 236 243
38 24 336 331 333 348 314 349 91 63 53 38 41 40 39 38 36 35 29 25 19 21 16 14 12 4 358 355 356 344 327 310 303 307 284 251 250 250 253 246 233 245 238 246 236 221 229 232 238
348 322 331 30 29 48 336 82 200 56 47 37 46 50 48 46 35 37 27 22 19 18 17 8 9 7 360 358 351 340 336 330 315 306 293 289 270 262 248 242 241 249 222 233 236 241 232 235 236
329 5 150 49 26 37 329 200 167 23 360 15 26 63 58 52 49 42 30 27 16 18 12 13 5 5 1 354 347 337 331 323 321 316 316 319 308 269 264 258 248 242 238 233 235 238 236 228 231
359 185 339 39 1 38 343 285 171 7 332 334 9 95 80 60 47 39 29 22 17 10 9 3 359 358 354 348 343 333 328 319 316 314 305 302 294 310 291 254 258 264 256 239 231 234 232 228 228
48 331 332 328 85 339 344 286 282 341 334 339 15 46 53 54 42 31 19 11 8 4 0 358 355 353 348 343 337 333 324 325 316 305 315 324 307 295 273 281 256 255 252 233 227 221 213 205 218
330 324 307 305 334 335 306 290 306 11 356 38 64 58 48 34 23 16 13 9 1 358 355 353 354 352 343 334 333 333 327 335 325 322 314 315 308 302 291 284 257 237 241 248 243 226 212 210 178
315 304 304 321 338 323 312 299 303 44 122 111 87 58 49 35 21 17 9 5 357 359 356 350 345 344 340 338 333 329 325 324 317 326 320 318 314 303 295 283 286 268 239 224 229 228 208 195 173
323 315 343 306 329 319 309 301 323 78 134 34 34 42 25 11 10 13 8 1 356 352 355 349 349 345 343 337 330 320 312 311 309 305 310 317 312 307 298 281 271 287 280 257 229 205 197 195 180
22 3 334 308 314 291 324 286 160 147 136 90 27 346 357 360 352 357 348 344 341 350 349 345 346 343 343 345 336 331 321 311 310 310 311 313 310 300 286 283 274 262 266 255 239 217 207 195 191
317 348 313 305 317 317 14 297 135 147 149 166 356 5 360 355 339 336 333 330 340 345 340 345 343 341 344 340 337 337 326 323 324 311 309 309 307 303 294 286 273 263 245 252 246 228 223 206 182
341 323 297 294 289 297 135 263 107 134 208 14 11 2 351 338 330 328 322 316 322 332 332 337 336 342 350 350 348 340 335 319 314 311 310 310 305 306 300 293 280 281 271 250 245 236 218 227 183
321 302 291 225 258 245 104 313 286 25 2 5 15 355 339 330 320 318 315 301 301 315 317 325 327 334 347 345 344 343 340 333 325 316 307 305 306 298 296 292 290 284 288 261 241 236 222 216 211
351 339 322 295 275 319 96 298 274 58 40 1 349 339 335 330 319 310 304 305 303 304 310 315 321 319 327 332 335 338 337 332 328 324 310 308 301 297 293 297 285 283 291 271 262 221 215 210 216
340 354 301 295 312 306 316 261 60 46 11 341 321 341 330 330 326 317 306 302 313 293 293 298 306 310 314 321 326 327 331 332 324 329 311 299 296 300 302 289 284 285 285 275 258 224 206 214 216
38 308 0 283 275 286 243 272 258 210 340 339 338 336 328 326 322 318 314 295 306 299 287 299 304 301 304 309 316 318 326 327 327 324 315 299 298 291 281 280 281 278 274 263 240 215 200 206 208
352 343 264 222 277 292 293 305 305 338 327 328 328 329 325 326 327 324 322 318 314 309 298 298 299 300 298 301 305 313 320 323 324 321 317 305 298 295 288 286 280 281 285 256 228 213 197 191 188
316 269 226 291 278 292 303 287 343 318 328 324 322 323 322 326 330 335 340 337 330 322 321 319 315 314 308 306 308 308 317 321 325 317 312 311 304 301 304 303 297 296 280 234 191 181 179 182 165
288 314 282 279 288 276 283 282 313 313 315 323 320 319 318 323 329 330 331 332 334 332 329 325 325 324 318 311 302 306 316 319 323 316 315 317 304 301 307 297 292 287 255 192 181 167 172 165 164